Theta_e
330 330 330 330 330 329 330 331 331 331 332 330 330 331 331 331 330 330 330 329 328 327 328 328 327 327 327 327 328 329 331 332 334 334 334 334 332 331 327 322 320 319 317 315 312 311 309 308 308 308 307 307 306 306 306 306 306 306 306 306 306 306 306 306 306 306 306 307 307 307 307 308 308 309 310 311 312 313 312 310 308 307 306 305 305
331 331 331 331 330 330 331 332 331 331 332 331 331 331 331 331 330 330 330 329 328 327 327 327 327 327 327 326 327 329 329 330 332 334 334 333 332 331 330 325 319 318 318 317 315 312 311 309 308 308 308 307 307 307 306 306 306 306 306 306 306 306 306 306 306 306 306 306 307 307 307 307 308 308 309 310 311 312 313 312 310 308 307 306 305
332 332 332 332 332 331 331 331 330 331 332 332 332 331 331 331 330 329 330 329 328 328 326 325 326 327 327 326 325 327 329 329 330 332 333 333 332 331 331 327 321 318 316 317 317 315 312 310 309 309 308 308 307 307 307 306 306 306 306 306 306 306 306 306 305 305 305 305 306 307 307 307 307 308 309 310 311 311 312 313 312 310 308 306 306
331 332 331 331 332 332 332 331 330 331 332 331 331 331 330 330 331 330 329 329 327 327 326 325 325 326 326 325 324 325 328 329 329 330 332 332 332 331 330 329 326 323 319 316 316 317 314 312 311 311 310 309 308 307 307 307 306 306 306 305 305 305 305 305 305 305 305 305 305 305 306 306 307 307 308 309 310 311 311 312 313 312 310 308 306
331 331 330 330 330 330 330 330 330 330 330 330 328 328 327 328 331 331 329 329 327 325 325 324 325 325 326 326 325 324 326 328 328 329 331 331 331 331 330 329 328 327 324 320 316 317 317 315 314 313 312 312 311 310 308 308 307 306 306 306 306 305 305 305 305 305 305 305 305 305 305 305 306 306 307 309 310 311 311 312 312 313 312 309 308
331 331 330 330 330 330 329 328 330 330 329 328 325 324 325 328 331 330 329 328 328 326 324 325 325 325 325 327 326 325 325 327 327 328 330 330 330 330 329 329 328 328 328 325 321 318 318 317 317 315 315 314 313 312 311 311 309 309 308 307 306 306 305 305 305 305 305 305 305 304 304 305 305 306 306 308 309 310 311 311 312 312 313 311 309
331 331 330 330 331 331 330 330 330 329 329 327 326 326 328 329 330 330 329 328 327 325 324 323 323 324 325 326 327 326 326 326 327 327 328 330 330 329 329 329 329 329 329 329 326 323 319 318 318 317 317 316 316 314 314 313 312 312 311 310 309 308 306 306 306 305 305 305 305 304 305 305 304 305 306 307 308 310 311 311 311 312 312 312 311
331 331 330 330 331 331 331 331 330 329 329 328 328 329 330 330 331 330 328 328 327 326 326 321 319 323 327 326 327 328 327 327 327 327 328 328 329 329 329 329 329 329 329 330 330 328 326 323 322 320 319 318 317 316 316 315 314 314 313 312 312 311 310 309 308 308 308 307 305 305 304 304 304 304 305 306 307 309 310 311 311 311 312 312 312
329 330 330 330 331 331 331 331 331 330 330 330 329 330 331 331 331 330 329 329 328 327 328 323 318 322 326 327 328 328 329 328 326 327 327 328 328 328 328 328 329 329 329 329 330 330 330 329 327 326 324 321 319 318 318 318 317 316 315 314 314 313 313 312 311 311 311 311 309 307 305 305 304 304 304 305 306 308 309 311 312 311 311 311 312
326 327 328 329 330 330 330 330 331 331 330 330 330 330 331 331 330 330 330 329 328 328 328 326 322 323 325 326 327 328 328 328 327 327 327 327 327 328 328 328 329 329 329 329 329 329 330 330 330 329 328 326 323 322 320 320 319 318 317 316 315 315 314 313 313 313 313 313 311 311 309 307 305 304 305 305 306 307 308 310 311 311 311 311 311
324 326 327 328 328 328 328 328 329 330 330 330 330 330 330 331 329 330 330 329 329 328 328 328 326 325 325 324 326 327 327 328 328 327 327 327 327 327 327 328 328 328 329 329 330 330 330 330 331 330 329 328 326 324 322 321 320 319 319 318 317 317 316 316 316 315 315 314 314 312 311 310 309 307 306 306 306 307 308 309 311 312 312 311 311
324 326 325 324 325 325 325 326 327 328 329 329 330 330 330 330 329 330 330 329 329 329 329 329 328 328 326 324 323 323 325 327 328 328 328 327 327 327 327 327 327 327 328 329 330 330 330 330 331 330 330 329 328 326 324 323 322 321 319 318 318 318 318 317 317 318 317 316 315 314 312 311 312 311 309 308 307 307 308 309 310 312 312 312 311
320 322 322 321 323 324 323 324 326 327 328 329 329 330 329 330 330 330 330 329 329 329 328 328 327 328 327 324 322 321 322 325 326 328 328 328 327 327 327 327 327 327 328 329 329 330 330 330 331 331 331 330 329 329 328 327 326 324 321 320 319 319 319 319 319 320 320 318 317 315 313 312 313 315 315 312 310 308 308 309 310 311 312 312 312
316 318 320 322 322 323 323 324 326 327 327 328 328 329 329 329 329 329 329 329 329 329 329 328 327 328 326 325 323 323 323 322 324 327 328 328 328 327 327 327 327 327 327 328 329 329 330 330 330 330 330 331 330 330 330 330 329 328 325 322 320 319 320 320 322 322 321 321 320 319 317 314 312 315 319 319 315 309 308 308 309 310 311 312 312
319 320 322 322 321 321 322 323 324 325 325 325 326 327 327 328 329 329 329 329 329 328 328 328 328 328 327 326 325 325 325 324 322 324 325 325 325 327 327 327 327 327 327 327 328 328 328 329 329 329 330 330 330 331 331 330 330 329 328 325 321 321 322 322 323 324 323 323 323 323 321 319 316 313 315 318 318 313 309 308 308 308 310 311 312
321 322 322 320 321 321 320 320 322 322 323 323 324 324 325 326 327 328 329 329 328 328 328 328 328 327 327 326 326 327 327 326 323 323 324 324 323 325 326 326 327 327 327 327 327 327 327 327 328 328 329 329 330 330 330 330 330 329 330 327 323 322 323 324 325 325 325 325 325 325 324 323 322 317 313 314 317 317 314 312 310 309 309 309 311
322 322 321 320 319 320 320 319 320 320 322 323 322 322 322 323 324 325 326 327 328 328 328 328 328 328 327 327 327 327 327 326 325 324 325 325 324 325 325 326 326 327 327 327 327 326 326 327 327 327 328 329 329 330 330 330 330 330 330 329 327 325 324 324 325 326 326 326 325 325 325 324 324 323 317 313 314 318 319 317 315 314 312 310 309
321 319 319 320 319 319 320 320 319 318 319 320 321 321 321 322 323 323 323 325 327 328 327 327 327 328 328 328 328 328 327 327 325 324 324 325 325 324 324 325 325 326 327 327 326 326 327 328 328 328 328 328 329 330 330 330 331 331 330 329 329 328 327 325 324 325 326 327 326 325 325 325 325 325 323 318 314 317 320 320 319 319 318 315 312
316 316 316 316 317 318 318 318 317 317 316 315 317 319 318 319 321 323 323 324 325 325 326 327 327 326 327 327 327 326 327 328 327 325 324 325 326 324 322 322 323 324 325 326 326 327 327 328 328 328 328 328 329 329 330 330 330 330 329 329 329 329 329 327 325 324 325 326 326 326 326 326 325 325 325 323 318 316 318 320 321 321 321 320 318
317 318 316 311 313 315 316 317 316 316 315 311 310 311 310 310 312 317 321 322 323 324 323 324 324 325 325 325 324 324 326 328 327 326 327 327 327 325 322 321 321 321 322 324 325 326 327 327 328 327 328 328 329 329 329 330 330 330 329 329 329 328 329 328 327 326 325 325 326 327 327 327 326 326 325 325 324 321 319 319 321 322 322 322 322
314 315 313 308 308 310 311 314 315 315 314 308 306 306 306 305 305 308 311 314 318 322 322 321 322 323 323 322 322 323 324 326 326 326 327 327 327 326 324 323 323 323 323 322 321 322 324 325 327 327 327 328 328 328 328 329 329 329 329 330 329 329 329 330 330 329 328 326 326 326 327 327 327 327 326 326 326 325 323 321 320 321 322 322 323
309 310 310 308 307 307 306 308 311 312 312 308 307 306 306 306 305 306 306 306 309 314 315 315 315 317 320 321 321 322 322 323 324 324 324 324 324 325 324 324 324 324 323 321 318 317 318 320 322 322 323 322 320 321 324 327 328 328 328 329 329 330 330 331 331 331 329 328 326 326 326 327 327 328 328 327 326 327 326 325 323 321 322 322 322
308 309 309 308 307 307 307 306 307 308 309 309 309 308 306 307 307 306 306 306 305 307 308 307 308 310 314 318 319 320 321 321 322 323 322 321 322 324 323 321 321 321 321 320 318 316 316 317 316 316 318 317 316 316 317 322 325 326 326 327 328 330 331 331 331 331 330 328 327 326 326 325 326 327 328 328 327 326 327 327 325 325 324 323 323
308 308 308 308 308 308 308 307 307 307 307 308 310 309 307 307 307 307 307 307 306 306 305 306 306 307 308 313 315 315 316 318 318 319 317 315 316 319 319 317 318 319 319 318 316 315 315 315 313 312 313 313 313 313 314 316 318 320 322 325 327 329 329 330 330 331 330 328 328 328 327 326 326 326 327 328 328 327 327 327 327 326 326 326 325
311 309 308 308 308 308 308 308 307 307 306 307 307 307 308 308 306 307 307 306 307 306 306 306 306 306 306 310 313 312 310 310 309 310 310 308 310 315 315 316 317 316 315 315 314 314 314 314 314 313 312 311 311 310 313 316 317 318 320 323 326 328 329 329 329 329 328 328 328 328 328 327 327 326 326 327 328 328 328 328 327 327 327 327 326
314 312 310 308 308 308 308 308 308 308 307 307 306 307 312 312 307 306 307 306 307 306 306 305 305 305 305 306 308 307 306 306 306 310 312 309 309 312 310 311 313 313 314 315 314 315 316 315 316 317 317 317 316 315 316 320 322 322 322 324 324 325 325 325 326 326 326 326 326 327 327 327 328 328 327 326 326 327 328 328 328 328 328 328 327
318 315 311 309 309 309 309 308 308 308 308 308 307 307 310 310 307 306 306 306 307 306 305 305 304 304 304 305 307 305 303 305 305 309 311 307 308 309 306 306 308 310 314 315 315 315 315 316 318 318 318 319 320 320 320 322 322 322 322 323 323 323 323 323 322 323 324 323 323 323 324 326 327 328 328 327 326 326 326 326 326 327 327 327 327
319 317 314 311 310 309 309 309 308 309 309 308 308 307 307 308 307 307 306 306 306 306 306 305 304 304 303 305 308 304 302 304 303 304 305 303 307 310 310 309 308 309 311 312 313 316 316 317 317 316 316 317 319 321 322 322 322 322 322 323 323 323 322 321 319 319 319 319 320 321 322 324 325 326 327 327 327 326 326 325 326 326 326 326 326
319 318 316 312 311 310 310 310 309 309 309 308 308 308 307 308 307 307 306 306 306 306 306 305 304 304 303 304 308 306 302 303 303 302 303 302 304 309 313 314 313 312 313 310 309 313 314 315 315 315 315 315 316 318 320 322 322 322 322 322 322 322 320 320 319 318 316 315 316 318 320 322 323 325 326 327 327 327 327 326 326 326 326 326 326
319 318 316 314 312 312 311 311 310 309 309 309 309 308 308 308 308 308 307 306 306 306 306 306 305 304 304 304 306 305 303 303 303 303 303 302 302 305 310 313 313 314 314 311 308 307 308 309 310 312 314 316 316 317 318 319 320 320 320 321 320 320 318 317 315 314 312 309 308 309 313 318 322 324 325 326 327 327 327 327 327 327 326 326 326
319 318 317 315 313 312 312 312 311 310 309 309 309 309 309 309 308 308 307 307 307 306 306 306 306 305 305 304 304 304 303 304 305 304 304 303 303 303 305 307 309 310 310 309 308 306 306 306 306 307 308 311 315 316 317 318 317 316 316 315 314 312 311 309 308 307 306 305 304 304 305 310 318 322 324 325 325 326 327 327 327 327 327 327 326
319 319 318 317 315 314 313 313 313 312 311 310 310 310 309 309 309 309 308 307 307 307 307 306 306 306 306 305 305 304 304 304 305 305 305 305 305 305 306 306 306 307 307 307 307 306 305 306 305 304 304 305 307 309 310 310 308 307 307 307 307 305 304 304 303 303 304 304 305 305 304 305 308 312 317 321 323 324 324 325 326 326 327 327 327
320 320 319 319 318 317 316 315 315 314 314 313 312 311 310 310 309 309 309 308 308 308 308 308 307 307 306 306 306 306 305 305 305 304 305 307 307 308 308 308 308 309 310 310 309 306 304 304 305 304 303 303 304 305 305 305 304 304 304 304 304 303 304 303 303 304 305 306 307 310 311 310 309 307 308 312 316 318 320 321 322 324 325 326 326
321 321 320 320 321 319 319 318 318 317 317 316 315 314 312 311 310 310 310 309 309 309 309 308 307 307 307 307 307 307 306 305 305 305 305 306 306 307 308 308 308 308 308 308 308 306 305 304 304 304 304 305 306 306 306 306 306 306 305 304 305 305 304 304 304 304 305 307 309 311 313 313 314 313 311 309 309 310 311 313 317 321 323 325 325
320 321 321 321 321 320 320 320 320 320 320 319 318 317 315 314 312 312 311 310 309 309 309 309 308 308 308 307 306 306 306 306 306 306 305 305 306 306 306 306 306 306 307 307 307 307 307 306 306 306 305 305 306 305 305 306 308 307 307 307 308 308 308 308 307 306 306 308 311 312 311 311 312 312 312 310 308 307 307 307 310 315 319 322 324
319 320 321 321 321 320 321 320 320 320 320 320 320 319 318 316 315 314 313 312 311 310 310 310 309 310 310 308 307 306 306 306 306 305 305 306 306 306 305 304 304 306 307 307 307 308 308 307 305 305 305 304 303 303 305 307 308 308 308 309 309 309 309 310 309 307 306 307 309 310 311 312 312 311 311 310 309 308 306 305 306 308 311 315 318
320 321 321 321 321 320 320 320 320 320 320 320 320 319 318 317 316 315 315 314 313 312 312 311 310 311 311 309 307 307 306 305 305 305 305 305 305 305 304 304 304 305 305 305 305 305 305 304 304 303 303 303 304 305 305 306 307 308 309 309 308 308 308 308 308 307 306 305 306 308 309 310 309 310 310 310 309 308 307 306 305 305 305 306 309
319 321 322 322 321 321 321 320 320 321 320 320 320 320 319 318 317 316 316 316 315 313 313 312 311 311 311 309 307 307 306 305 304 305 305 305 305 304 305 304 304 303 303 303 303 302 302 303 303 303 303 304 305 306 305 306 307 308 309 309 309 308 308 309 309 309 309 310 311 311 310 309 308 307 306 307 306 306 307 307 307 306 304 303 304
318 320 321 320 319 319 320 320 320 320 320 320 320 319 319 318 318 317 317 316 315 315 314 313 312 312 310 309 308 307 306 305 304 304 304 304 304 304 304 304 304 303 302 302 301 300 301 301 301 303 304 305 306 306 306 307 308 308 308 309 309 309 310 311 311 311 311 311 309 308 309 309 308 307 305 304 304 303 304 305 305 305 305 304 303
319 320 321 320 318 318 319 319 319 320 320 320 320 320 319 319 318 318 317 317 316 315 314 313 313 312 311 309 308 307 306 305 305 304 304 304 304 304 304 303 303 303 303 302 301 299 299 299 300 302 304 305 306 306 306 307 308 308 308 309 309 310 310 311 310 309 308 306 305 305 305 306 306 305 304 304 306 309 310 309 308 306 305 305 305
318 319 320 320 319 318 318 318 318 319 319 318 319 319 320 319 319 318 318 317 316 315 314 314 313 312 311 310 309 307 306 306 305 304 304 303 303 303 303 303 303 303 303 302 301 300 298 298 299 300 301 303 304 305 306 307 307 307 308 308 308 308 308 308 307 306 306 306 306 307 307 307 307 307 307 308 310 312 313 313 312 311 309 309 308
315 316 317 318 319 319 319 319 319 319 318 317 318 319 320 320 319 318 318 317 316 316 314 313 312 312 311 310 309 308 307 306 305 305 304 303 303 303 303 303 303 302 302 301 301 299 298 297 297 297 298 299 300 301 303 304 305 305 306 306 307 307 307 307 307 307 307 307 308 309 309 308 308 310 312 312 313 313 314 314 315 315 315 315 314
315 315 314 313 313 314 316 319 320 320 320 320 320 319 319 320 319 318 318 317 317 316 314 313 312 311 311 310 309 308 307 306 306 305 304 304 304 303 303 303 302 301 301 300 299 298 298 297 297 297 297 297 297 298 300 301 303 305 306 306 307 307 307 308 308 308 308 308 309 309 308 307 306 308 309 309 310 310 312 313 315 316 317 317 317
316 316 315 314 312 311 312 315 317 320 320 320 321 320 319 319 319 318 318 317 317 315 313 313 312 311 310 310 308 307 306 306 305 304 304 303 303 303 303 302 301 301 300 299 298 297 297 297 297 297 297 297 296 297 297 299 301 302 304 305 306 307 307 307 308 308 307 307 307 306 306 305 306 306 306 306 305 305 305 307 312 315 317 317 317
314 316 317 317 317 316 315 314 315 318 318 317 318 320 320 319 319 318 317 316 316 315 313 312 312 311 310 310 308 307 306 305 304 303 303 302 302 302 301 300 299 298 297 297 296 296 296 297 297 297 297 297 297 297 297 297 298 298 299 300 301 303 304 305 305 305 305 305 305 305 305 305 304 304 304 304 303 302 302 302 304 307 310 313 315
313 314 315 316 317 317 317 315 313 316 317 315 314 317 318 319 319 318 317 316 315 314 313 312 312 311 310 310 308 307 305 304 304 303 302 301 301 300 298 297 296 296 296 296 296 296 296 297 297 298 298 298 297 298 298 298 298 298 298 298 298 299 300 301 302 302 302 303 304 304 304 303 302 302 301 301 301 300 300 301 301 302 303 305 308
311 312 313 314 315 315 316 315 315 316 318 317 315 315 317 318 318 317 316 316 315 314 313 312 312 311 310 309 307 306 305 304 304 303 303 301 300 298 296 295 295 295 295 295 296 296 296 296 297 297 298 298 298 298 298 299 299 299 299 299 299 299 299 299 299 299 299 300 301 302 302 301 301 301 301 301 301 301 302 302 301 303 305 306 306
311 311 312 312 313 314 314 315 316 317 317 317 317 316 317 317 317 316 316 315 315 314 312 312 311 309 308 307 306 306 305 304 303 303 301 299 298 296 296 296 296 296 296 296 296 296 296 296 296 297 297 298 298 298 298 299 299 299 299 300 300 299 299 299 299 299 299 299 299 300 301 301 301 301 301 302 303 303 304 303 302 302 303 304 306
312 312 312 312 313 313 314 314 315 316 316 316 317 317 317 317 317 316 315 314 314 313 311 310 309 307 306 306 305 304 303 302 301 300 298 297 297 298 298 298 297 296 296 296 296 296 296 296 296 296 297 297 297 297 297 298 298 298 298 298 298 298 298 298 298 298 299 299 299 300 300 301 301 302 303 303 304 304 304 304 304 305 304 305 306
312 312 312 312 312 313 313 314 314 315 315 315 315 316 316 317 316 315 314 313 313 311 309 307 306 305 304 303 302 302 301 300 299 298 297 298 298 299 298 298 297 296 296 296 296 295 295 296 296 296 296 296 297 297 297 297 297 297 297 297 297 297 297 297 297 297 298 298 299 299 299 300 300 301 302 302 303 303 304 305 306 307 307 307 308
311 311 312 312 312 312 312 313 313 314 314 314 314 315 316 316 315 314 313 313 311 308 306 305 303 302 301 301 301 300 299 298 297 297 298 298 298 298 298 297 297 297 296 296 295 295 295 294 294 294 295 295 296 296 296 296 297 297 297 297 297 297 297 297 296 296 297 298 298 298 299 300 300 301 301 302 302 303 304 305 306 307 308 309 310
Wind_Speed
10 9 9 11 12 12 12 11 12 10 10 10 11 12 9 7 9 8 6 6 7 6 8 10 10 11 13 12 9 7 9 9 10 10 11 9 8 7 5 4 3 3 4 4 5 4 5 5 6 6 6 6 6 6 5 4 4 5 5 4 4 4 3 3 3 3 2 2 1 1 1 2 3 4 5 6 7 8 9 10 10 10 10 9 9
10 11 10 11 11 11 11 11 10 10 11 10 12 12 9 9 9 9 9 9 9 8 9 10 8 9 12 10 9 9 10 11 10 10 10 9 8 7 6 4 3 2 3 3 4 5 5 5 6 6 6 6 6 6 6 6 6 6 6 5 5 5 4 4 4 4 3 3 2 2 1 1 1 2 3 4 5 6 7 8 9 9 9 9 9
11 11 11 11 10 11 11 10 10 10 8 9 11 11 9 10 9 9 10 9 12 9 7 10 11 10 12 12 9 10 10 11 11 10 10 10 8 6 5 5 4 3 3 3 3 4 4 5 5 6 5 5 6 6 7 7 7 7 7 7 6 6 5 5 5 5 4 4 4 3 2 2 1 0 1 2 3 4 5 6 7 8 8 8 8
12 11 11 10 10 10 11 10 9 9 8 7 8 9 11 12 10 11 11 8 10 11 7 9 12 13 12 13 10 8 9 11 10 8 9 10 9 7 6 5 5 5 4 3 3 3 3 4 4 5 5 5 6 6 7 7 7 7 7 8 8 7 7 6 6 6 6 5 5 4 4 3 3 2 1 1 2 3 4 5 6 7 7 7 7
12 12 12 10 10 11 11 10 8 9 10 8 7 7 11 14 13 12 10 9 10 13 11 8 12 15 13 11 10 9 10 12 10 9 10 12 11 8 6 5 5 5 6 5 4 3 3 3 4 4 3 4 5 6 7 7 7 7 7 8 8 8 8 8 7 7 7 7 6 5 5 5 5 4 3 2 1 1 2 3 4 5 6 6 7
12 11 12 11 11 11 10 10 9 10 11 8 8 9 11 15 16 13 10 10 12 14 14 11 12 14 11 9 10 10 11 13 12 11 12 12 10 10 8 7 6 6 6 6 6 5 4 4 4 4 3 4 4 5 6 6 6 7 7 7 8 8 8 8 9 9 9 9 8 7 6 6 6 6 5 4 2 1 1 2 2 3 4 5 6
10 10 10 10 11 11 10 10 11 12 11 9 9 10 12 14 15 12 9 9 10 11 11 12 15 13 7 9 12 10 12 13 12 11 12 13 11 9 10 9 7 7 7 7 7 7 6 5 5 4 4 4 4 4 4 5 5 6 6 7 8 8 8 8 9 9 9 10 9 9 8 8 8 8 7 6 4 3 2 1 1 2 3 4 5
9 8 7 7 9 10 10 9 10 11 10 10 10 10 11 13 13 12 11 10 8 7 7 9 12 13 7 10 13 12 11 13 13 11 11 13 12 10 10 10 9 8 7 7 7 7 6 6 6 5 5 4 4 4 4 5 4 5 6 6 7 7 8 8 8 9 9 9 10 10 10 10 10 9 9 8 6 5 4 2 1 1 2 3 3
6 6 5 6 7 9 9 9 10 11 11 12 11 10 11 12 13 13 14 12 9 8 8 5 7 13 10 10 13 13 10 12 15 15 11 10 11 11 11 11 11 11 10 10 9 8 8 7 7 6 5 5 5 4 4 4 5 5 5 5 6 6 7 7 7 8 8 8 9 9 10 11 11 11 10 9 8 7 5 4 3 1 1 2 2
3 4 3 3 4 5 5 6 7 9 10 11 11 10 10 10 11 13 15 14 11 11 10 6 6 9 10 10 11 11 10 10 14 18 14 10 9 11 12 11 11 12 12 13 11 10 9 8 8 8 7 7 6 5 5 5 5 5 5 5 5 6 6 6 6 6 6 7 7 8 9 10 11 11 11 11 10 9 7 6 4 3 2 2 2
1 2 3 3 5 6 5 3 3 7 8 9 10 9 9 9 9 12 14 14 13 12 11 9 8 6 8 11 11 7 8 10 12 16 17 15 10 10 12 11 12 13 13 14 14 11 10 10 10 10 10 9 8 7 6 5 5 5 6 5 6 6 6 6 6 6 6 7 7 7 7 9 10 10 11 11 10 10 9 7 6 4 3 2 2
1 1 2 1 2 6 7 5 3 4 5 7 8 8 8 9 9 11 13 14 13 12 12 10 9 7 7 10 13 10 8 10 10 11 15 17 14 12 10 11 12 13 14 15 13 13 13 12 12 12 11 10 9 9 7 5 5 6 7 7 7 7 7 7 6 5 6 7 7 7 6 7 8 9 9 10 10 10 10 9 7 6 5 4 3
2 2 1 4 5 4 5 5 4 3 2 4 6 7 7 7 9 10 11 13 12 11 11 10 8 8 8 8 11 13 12 12 11 8 9 11 13 13 10 11 11 10 13 14 12 13 15 14 13 12 11 10 10 10 8 7 8 8 8 8 8 7 7 7 6 5 5 6 6 7 7 6 7 8 7 8 8 9 10 10 9 7 6 5 4
6 8 8 6 5 3 3 4 3 3 3 2 2 4 6 6 8 9 10 11 12 11 11 10 9 8 8 8 10 12 13 14 15 11 9 7 9 12 11 12 12 9 10 13 12 13 14 14 14 12 11 10 9 9 10 10 11 10 9 9 9 8 8 7 6 6 6 6 5 6 7 7 6 7 8 7 7 8 9 10 10 9 8 6 5
10 11 6 4 5 4 3 4 5 5 7 7 5 4 3 4 5 7 8 8 8 10 11 11 12 10 9 9 10 11 11 12 15 15 11 9 8 9 11 13 14 13 12 11 12 12 13 13 14 13 12 11 11 11 12 12 11 11 11 10 10 9 9 8 7 7 6 6 5 6 7 7 7 7 9 9 8 7 7 8 9 10 9 8 7
9 7 2 3 5 3 2 4 3 3 7 9 7 6 8 7 5 4 3 4 4 7 9 9 10 11 10 9 9 10 9 7 9 11 10 10 9 10 12 13 14 15 15 13 13 13 13 14 14 13 12 12 13 14 13 13 11 10 10 11 11 10 10 10 9 9 9 8 7 7 7 8 9 9 9 10 10 8 7 7 8 8 9 9 8
9 7 4 4 6 5 5 3 1 3 6 5 6 6 7 9 11 9 5 2 2 3 5 6 7 9 9 9 8 7 8 7 6 7 7 7 9 10 12 13 13 14 15 15 15 14 13 14 16 16 13 13 14 14 13 14 12 11 10 10 11 11 12 12 11 11 12 12 10 9 9 9 10 10 10 10 10 10 9 8 8 8 8 8 9
7 6 7 7 6 7 7 4 2 4 5 4 5 4 2 4 8 7 7 7 3 2 2 2 3 6 9 10 10 8 8 8 7 6 6 5 7 8 9 10 11 12 14 15 15 15 13 12 15 17 16 15 16 15 14 14 13 12 12 12 12 13 14 15 14 13 13 14 14 13 12 11 10 11 11 10 10 11 11 10 9 8 8 7 8
7 7 7 7 7 7 9 8 7 6 3 2 5 3 3 6 6 3 5 8 6 6 5 4 3 1 5 7 9 8 8 9 7 6 6 5 6 5 5 5 6 7 11 14 15 16 15 13 13 15 16 16 16 16 16 16 14 12 12 13 13 13 14 15 16 16 16 16 16 16 15 14 13 13 12 11 10 11 12 12 11 10 9 8 8
8 8 7 8 9 9 11 11 10 7 4 3 4 2 2 4 6 6 6 5 6 7 7 5 5 4 4 2 1 2 5 9 9 8 6 5 5 4 3 4 5 6 6 8 11 13 14 15 14 14 14 14 14 15 15 16 15 13 13 15 16 15 14 15 16 17 18 17 17 17 17 17 17 16 14 13 11 11 11 12 13 13 12 11 10
6 7 7 9 10 9 10 11 11 8 3 6 8 6 7 7 6 6 6 5 6 7 6 4 3 3 5 5 5 4 2 3 4 6 6 7 7 5 4 5 6 7 6 7 9 9 9 12 13 13 13 12 12 12 13 15 15 13 13 16 17 17 16 16 15 16 18 19 19 19 19 19 19 19 17 15 14 13 12 12 13 14 14 14 13
5 7 7 9 10 10 10 9 9 8 5 7 9 9 9 9 9 9 8 6 6 6 5 4 4 5 6 5 3 2 2 3 3 1 3 5 5 4 3 4 5 7 7 9 10 9 7 9 10 12 13 13 13 12 12 14 14 14 15 16 16 16 17 17 15 15 17 19 21 21 21 21 21 21 21 20 18 17 15 14 14 14 14 14 14
4 5 6 7 8 9 9 9 9 9 8 8 8 9 9 10 10 9 9 9 8 7 5 4 5 5 7 8 7 5 4 2 2 3 2 2 3 2 3 6 7 7 8 9 11 12 13 13 13 14 15 15 14 13 13 13 13 14 16 16 16 16 17 18 17 16 16 17 19 21 23 23 23 22 23 23 22 20 19 18 16 15 14 14 13
3 3 4 5 6 7 8 9 9 9 9 8 7 7 7 8 8 8 8 8 8 8 7 6 7 6 6 7 6 5 7 6 6 6 6 4 4 3 1 5 6 5 6 9 9 9 10 12 14 16 17 18 18 17 15 14 14 15 16 17 17 18 19 19 19 19 19 18 18 19 20 22 24 25 25 25 25 24 22 21 20 19 17 15 14
1 2 3 3 4 5 6 7 7 7 7 7 6 6 7 7 7 7 7 7 7 7 7 7 6 6 6 7 5 3 5 5 4 2 3 3 2 3 4 3 5 5 5 7 8 8 6 6 7 9 10 11 13 14 13 13 14 15 16 16 15 17 18 18 18 20 21 22 23 23 22 21 23 25 27 27 27 26 25 24 24 22 20 19 18
2 1 2 2 3 4 4 5 5 5 5 6 6 6 6 5 6 7 7 7 7 7 7 7 6 5 5 5 4 3 2 2 3 3 3 1 1 2 3 3 5 5 3 5 7 7 7 6 5 6 8 8 8 9 8 11 13 13 15 16 16 17 18 18 18 19 20 22 24 25 26 25 23 24 26 28 29 29 28 27 27 26 24 22 21
5 4 1 1 2 2 2 2 3 3 4 4 4 5 5 3 5 6 6 7 7 6 7 7 7 6 5 5 4 4 3 3 3 3 1 2 2 2 3 2 2 1 2 3 3 3 4 4 3 5 8 8 8 9 8 11 13 13 15 17 17 18 19 20 21 21 21 21 21 22 24 25 25 25 25 26 29 31 31 31 30 29 27 26 24
8 8 4 2 2 3 3 3 3 2 3 2 2 3 3 2 4 5 5 6 6 6 7 7 7 7 6 5 5 5 5 4 4 3 1 2 2 3 5 7 6 5 4 2 1 1 3 4 4 3 4 2 1 1 4 6 9 11 14 15 16 18 20 21 21 22 22 22 21 22 22 22 24 26 26 27 27 29 31 32 32 32 31 29 27
10 11 9 5 4 4 5 5 4 3 2 2 2 2 1 1 3 3 4 5 5 6 6 6 7 6 6 6 5 6 6 5 5 5 4 3 2 3 4 5 7 7 6 4 3 3 1 2 3 2 2 2 3 3 3 4 8 11 13 16 17 19 20 20 20 22 22 22 22 22 21 21 22 24 26 27 27 28 30 31 33 34 33 32 31
11 13 13 10 8 6 6 7 6 5 4 3 2 2 1 1 2 3 3 4 4 5 5 6 6 6 6 6 5 5 6 5 5 5 5 5 4 3 3 2 1 3 5 7 6 5 5 5 6 8 8 7 7 9 10 10 11 12 15 19 21 22 24 24 24 26 26 26 24 23 22 22 22 23 24 25 26 27 28 29 31 33 34 35 34
12 14 16 14 11 10 9 9 9 8 6 5 4 3 2 2 2 2 2 2 3 4 4 4 4 4 5 4 4 5 6 6 5 6 6 6 6 6 4 2 1 3 4 7 8 7 7 7 7 8 10 11 12 14 16 17 17 18 20 23 24 25 25 25 25 25 25 25 23 22 22 24 24 24 24 24 25 26 27 28 30 32 34 36 36
13 15 17 17 15 14 12 11 11 11 10 8 7 6 5 4 3 3 2 1 3 4 3 2 2 3 3 3 3 4 5 6 5 6 7 8 8 9 9 8 6 6 7 8 10 11 10 10 11 12 11 12 13 14 16 17 18 19 21 22 23 23 22 22 21 20 20 20 19 19 20 21 24 26 26 26 26 26 26 27 28 30 32 34 36
15 15 18 18 17 15 15 14 13 14 13 11 11 9 8 7 6 5 5 4 3 4 5 3 3 3 2 2 2 2 3 4 5 6 6 6 7 8 10 11 10 10 10 10 12 15 15 13 14 15 15 15 15 14 15 16 16 16 17 17 18 19 19 18 18 18 18 17 17 17 18 19 20 23 25 27 28 28 28 28 28 28 29 30 32
16 16 18 19 18 16 16 16 14 14 15 14 13 12 11 10 9 8 9 8 6 6 7 7 6 6 4 2 2 3 3 3 4 5 5 4 3 3 4 6 6 7 8 10 12 16 18 17 16 17 17 16 15 16 17 18 19 19 19 18 17 17 17 16 16 17 17 16 16 17 19 20 21 22 23 25 27 28 29 30 31 30 29 29 30
18 19 19 19 19 18 18 18 16 15 15 15 15 15 13 13 12 12 12 11 9 8 10 10 9 9 7 4 5 6 5 5 5 6 6 6 5 3 3 5 6 7 9 11 12 15 19 20 20 20 20 18 17 19 18 18 18 19 19 18 18 18 19 18 17 17 16 16 16 18 19 21 22 24 25 26 26 26 26 28 31 33 33 32 31
21 20 21 22 22 21 20 20 18 17 17 17 17 17 16 14 14 14 14 14 12 11 12 12 9 10 11 9 7 8 8 7 8 7 7 6 6 6 7 7 7 7 8 10 12 14 17 20 21 20 20 21 21 20 19 18 19 19 18 18 17 18 18 19 20 20 19 18 19 21 22 23 24 25 26 28 28 27 27 26 28 31 34 35 34
21 21 23 25 24 22 22 22 20 20 19 19 19 19 18 16 15 16 16 17 15 13 13 14 10 11 14 12 9 8 9 8 8 8 7 7 8 9 10 10 9 9 10 11 13 14 16 19 21 21 21 21 21 20 18 18 20 20 19 19 18 18 19 19 20 21 19 17 16 17 20 22 24 25 27 28 29 29 28 27 26 28 31 34 36
23 24 26 26 24 22 23 23 22 22 22 22 21 20 19 18 16 16 17 18 18 15 15 15 12 14 16 14 11 11 11 10 10 10 10 10 11 11 12 13 13 13 14 15 16 17 17 19 21 22 22 21 20 20 19 18 18 19 20 21 21 20 21 20 19 17 16 15 14 15 18 20 23 24 26 27 28 28 29 29 28 27 27 29 33
25 27 28 28 24 22 22 22 22 25 25 23 22 21 20 20 19 18 18 19 19 17 16 15 15 17 17 16 14 13 13 12 12 12 12 12 13 13 14 15 16 16 17 17 17 18 19 20 21 21 21 20 19 20 20 18 17 18 20 21 22 20 19 18 17 16 16 19 22 23 23 23 25 27 28 29 29 28 28 28 29 29 28 27 28
24 25 26 28 26 23 24 25 26 28 27 25 22 21 22 23 22 21 20 20 19 19 18 17 17 18 17 16 15 15 14 14 13 13 13 14 14 15 15 16 17 18 18 19 19 19 19 19 20 20 20 19 19 20 19 18 18 18 17 18 20 20 19 21 23 24 25 27 28 28 25 23 23 23 24 26 26 25 25 25 26 27 28 27 27
19 19 21 24 25 24 25 26 26 27 27 25 24 24 25 25 24 23 21 20 20 20 20 19 18 18 17 16 16 16 15 14 14 14 15 15 16 17 17 18 19 20 20 21 21 21 21 21 21 21 21 21 20 20 19 18 18 19 19 20 23 24 26 27 29 28 28 27 26 25 24 22 21 20 19 21 22 23 23 24 24 25 25 25 26
14 15 16 20 22 23 24 24 24 25 24 24 26 28 29 30 28 24 22 22 21 20 20 20 19 18 18 17 17 17 16 15 15 16 17 17 18 19 20 20 21 21 21 21 21 21 22 23 23 23 24 24 24 22 21 21 21 22 22 23 25 26 27 28 29 27 23 21 21 22 22 21 21 21 20 19 19 20 21 22 23 24 24 24 25
14 14 14 15 17 18 20 21 22 24 24 24 25 28 31 33 29 24 23 24 23 21 20 20 19 19 18 17 17 17 18 17 17 17 18 19 20 21 22 22 22 22 22 23 23 23 23 24 25 25 26 28 27 25 24 23 21 21 21 22 22 23 23 24 26 24 18 16 19 23 25 25 25 25 26 25 25 24 24 24 24 23 23 23 24
15 16 15 15 16 16 16 17 18 20 23 24 25 26 28 30 27 25 25 26 25 22 21 20 19 19 18 18 17 18 18 19 19 19 19 20 21 22 23 23 24 24 24 25 25 25 26 26 27 27 27 28 28 27 26 26 25 25 25 25 25 24 24 24 25 25 23 22 25 28 30 30 28 28 29 29 28 27 27 27 26 25 25 24 25
14 16 17 16 17 18 18 19 18 19 22 23 23 23 25 27 27 27 27 27 26 24 22 22 21 20 20 20 19 19 20 20 20 20 21 21 21 21 22 23 25 26 26 27 27 28 28 29 30 30 29 28 28 28 27 27 30 32 32 32 32 31 32 31 32 33 32 29 27 29 33 34 31 32 34 34 33 32 31 30 29 29 30 30 30
13 14 16 16 18 19 21 22 21 20 23 23 20 19 22 26 29 28 27 28 28 25 24 24 24 23 22 22 21 20 20 20 21 21 21 21 20 21 22 23 25 26 27 28 28 29 30 30 31 32 30 29 29 28 26 25 28 31 32 34 35 36 37 38 39 40 39 34 30 32 39 40 37 38 41 39 37 37 35 32 30 29 29 29 31
13 14 15 16 18 19 21 23 22 21 22 22 20 18 20 24 27 27 27 28 28 27 27 28 27 26 25 23 22 21 21 22 23 23 23 22 22 23 24 26 27 27 27 27 27 28 29 30 31 32 32 31 30 29 27 25 26 28 29 31 33 34 37 39 42 42 41 39 34 34 41 42 37 38 42 39 35 35 33 30 28 27 26 27 27
14 14 15 16 18 19 21 22 23 23 23 22 22 22 21 23 25 26 27 29 28 28 29 29 27 25 23 22 22 22 22 22 23 24 23 23 24 26 27 28 28 28 28 28 28 28 27 28 29 31 32 31 31 31 30 30 31 32 33 36 36 36 39 42 44 43 41 39 33 30 35 39 35 34 38 35 32 32 30 28 28 26 25 26 26
14 14 15 16 17 18 20 22 23 24 23 23 24 23 23 24 25 26 27 27 26 27 28 26 24 22 20 20 21 21 21 22 23 23 24 25 26 28 29 30 30 31 31 30 30 29 27 27 28 29 30 31 32 33 32 31 32 32 34 37 38 37 39 42 44 44 40 37 31 25 29 35 32 29 32 31 29 30 30 28 26 24 22 23 23
15 15 15 16 16 18 20 22 23 24 23 22 23 22 22 23 24 24 23 22 22 23 22 19 17 16 15 15 17 18 19 21 23 25 26 27 28 29 30 31 32 33 33 32 31 30 30 30 31 31 32 32 32 33 33 32 30 28 29 33 33 33 36 38 39 40 39 37 32 26 29 33 30 27 29 30 29 28 26 25 23 21 22 22 24
15 15 15 16 18 20 22 23 24 25 24 22 22 21 21 22 22 20 19 20 20 20 18 15 14 13 12 12 14 17 18 21 24 26 26 28 28 29 31 32 34 35 35 34 34 34 35 35 36 36 35 34 34 34 34 34 33 31 31 33 32 32 35 36 35 35 36 35 28 21 24 28 25 23 23 24 27 26 21 19 21 22 23 24 25
Wind_Direction
219 214 204 210 217 223 223 221 229 230 225 221 203 208 233 222 212 231 226 204 214 235 239 229 215 208 205 195 196 216 226 223 199 203 227 229 227 229 226 233 254 266 274 279 270 245 204 193 205 204 199 198 197 198 191 186 179 170 175 176 179 186 189 186 184 180 175 174 153 125 102 72 56 51 54 59 61 61 61 59 56 53 52 51 51
219 215 210 216 221 226 229 225 228 228 224 224 212 209 224 230 223 227 231 209 197 221 237 238 236 227 228 213 198 207 217 232 219 203 224 235 228 224 225 229 238 258 264 277 279 267 237 203 204 207 201 199 197 197 194 194 193 187 190 192 193 197 200 201 202 203 199 199 202 204 195 132 80 52 47 52 57 60 61 62 59 55 51 49 48
219 218 216 219 222 228 232 232 230 228 229 229 224 225 233 238 244 244 243 214 191 203 222 231 237 228 241 247 223 201 206 235 235 207 216 237 239 229 228 234 240 258 261 271 282 279 254 226 214 210 199 196 194 197 197 196 198 197 200 203 206 209 211 212 211 216 217 214 218 225 234 240 237 25 37 38 45 54 58 59 60 58 53 50 48
228 230 226 225 230 232 229 235 238 239 248 250 238 239 246 248 255 250 242 228 199 189 196 225 230 217 228 251 244 213 207 231 234 211 217 231 242 248 246 241 243 263 269 265 271 271 258 243 233 223 206 199 196 196 198 200 201 203 207 211 216 217 220 225 224 228 232 230 229 231 240 249 255 259 272 345 24 39 49 54 57 57 55 53 50
229 233 239 238 238 237 233 240 247 251 255 258 256 253 254 249 253 250 232 240 228 196 196 216 217 210 216 234 242 231 218 230 228 204 213 230 244 253 250 259 266 270 275 272 262 247 240 239 242 238 225 217 211 204 201 203 204 207 212 217 225 228 230 233 234 238 240 241 241 238 242 247 253 258 259 263 292 6 29 41 49 54 53 52 50
228 225 234 239 244 242 232 237 243 248 250 247 246 246 246 241 245 250 224 232 247 224 216 222 220 214 216 231 239 230 218 232 236 210 206 219 240 254 253 263 273 278 274 265 259 248 235 229 235 241 245 247 240 226 215 213 214 216 218 222 232 238 240 242 243 245 247 247 246 246 247 248 252 255 257 260 256 266 338 16 34 45 49 49 48
232 226 229 234 246 246 228 229 238 241 244 241 241 242 241 237 239 242 222 223 247 249 240 241 236 213 212 252 241 224 213 224 238 227 212 209 215 239 258 260 260 269 272 264 258 250 245 242 242 242 247 258 261 258 248 234 226 224 226 229 235 241 247 251 251 251 254 253 250 249 251 252 254 255 256 258 257 254 255 280 354 26 38 43 41
245 240 239 241 246 250 237 228 236 242 244 245 243 242 242 238 234 226 218 221 227 247 274 271 236 202 215 260 233 219 214 213 220 222 218 219 218 221 243 257 261 265 266 269 264 251 250 251 252 255 251 257 263 269 274 268 258 245 241 240 242 246 249 254 258 259 260 259 255 251 252 254 254 255 256 256 255 256 253 252 269 335 10 26 34
264 259 250 248 242 246 246 237 236 239 244 251 248 243 241 235 230 219 217 221 205 211 253 271 202 200 231 259 235 229 227 215 211 213 212 216 228 226 227 242 257 266 265 262 258 250 251 252 253 262 264 263 264 266 271 275 276 269 264 259 254 253 253 256 261 265 267 265 260 255 253 255 255 255 255 256 257 256 257 258 257 264 319 355 14
288 305 316 302 287 279 271 264 253 245 245 250 247 243 242 236 230 224 225 227 209 205 228 229 196 210 238 253 244 236 241 234 213 214 216 203 216 230 230 235 240 252 263 263 260 254 250 252 252 257 263 265 265 265 262 263 267 268 267 263 259 257 256 259 263 269 275 275 271 262 257 256 257 256 254 254 256 257 257 257 258 255 259 296 334
310 340 351 7 348 343 335 328 283 264 260 253 250 244 240 239 235 230 233 232 221 220 226 225 224 228 236 244 243 236 250 247 220 218 223 215 211 217 224 234 236 241 250 257 262 260 256 257 257 261 263 261 263 263 258 257 259 260 260 256 258 259 260 262 267 277 285 288 288 278 267 260 257 256 254 252 252 254 255 253 253 251 246 249 273
174 185 267 158 46 3 348 347 338 287 276 259 255 248 237 238 237 232 232 230 228 229 225 222 230 228 223 231 235 243 260 251 235 226 225 224 222 217 213 222 235 244 244 245 252 255 257 258 260 266 264 258 259 259 257 260 268 267 261 254 253 253 256 262 265 273 282 289 294 293 288 275 261 256 254 253 251 251 252 252 249 245 243 237 238
145 140 69 77 79 38 349 335 337 339 311 262 253 246 241 242 240 237 233 231 232 232 228 230 234 225 220 222 227 241 256 258 253 236 228 234 232 228 221 216 226 239 242 242 241 243 252 257 261 265 264 259 252 251 255 263 273 273 266 261 256 248 248 254 259 265 274 282 291 297 301 300 280 267 263 261 259 255 251 251 251 247 243 238 235
60 81 74 66 83 76 22 357 341 5 24 337 292 267 261 258 248 243 239 236 237 237 238 241 237 224 223 228 231 238 244 249 250 243 240 245 235 231 225 221 224 224 232 239 238 240 247 256 264 266 269 269 258 255 262 269 274 273 273 271 261 251 245 240 242 250 262 273 290 305 311 316 304 279 270 269 268 263 255 251 252 251 248 243 239
54 65 75 93 90 71 47 43 22 22 31 23 25 34 358 302 264 253 245 239 238 241 243 244 242 243 244 245 247 254 257 250 245 247 250 246 241 236 227 227 229 224 225 229 231 239 243 249 261 267 270 275 271 267 268 273 276 274 275 274 261 253 252 248 242 245 255 267 285 301 309 317 316 296 277 268 265 264 260 255 252 252 252 250 247
79 71 79 143 120 103 87 69 40 46 40 21 15 32 37 30 16 355 285 241 231 236 241 242 239 241 245 246 248 257 267 264 248 247 251 247 243 240 234 234 234 232 233 227 222 230 234 233 239 249 255 256 259 265 268 271 275 275 272 269 261 256 257 257 254 256 263 267 277 286 294 306 312 309 293 275 265 260 261 257 251 252 253 252 251
97 94 91 106 128 122 87 62 31 120 97 60 37 34 36 34 25 17 18 20 201 206 230 239 235 232 230 232 236 240 243 252 255 243 235 233 231 233 234 235 236 238 239 234 227 229 231 226 222 226 229 227 235 250 261 263 263 268 267 262 263 264 261 259 257 258 261 265 271 274 277 288 296 302 301 287 271 262 260 257 251 252 255 253 252
104 120 114 93 112 130 113 94 85 112 122 121 98 83 115 84 48 24 34 41 49 98 125 178 214 230 230 231 229 226 234 243 246 235 231 228 220 223 230 233 238 241 242 237 232 233 236 231 225 224 227 231 233 238 248 254 257 262 266 263 264 265 261 258 257 256 256 261 267 270 272 274 276 284 292 289 279 268 262 259 255 255 259 260 257
83 89 96 95 106 121 115 92 65 64 67 114 139 158 195 158 136 115 72 58 52 55 61 72 71 160 215 232 231 234 243 240 231 223 230 236 217 206 218 234 246 249 247 242 236 238 243 247 246 241 239 242 245 244 246 251 253 256 261 264 263 262 262 260 259 258 256 258 263 268 272 270 267 271 278 281 280 273 267 263 259 257 258 260 263
78 78 77 87 95 100 109 107 88 76 42 49 114 130 77 138 160 165 149 122 99 79 67 57 49 63 68 42 342 277 245 226 223 225 236 261 245 217 220 244 260 263 256 248 242 242 248 252 255 254 250 249 254 257 256 254 254 253 254 260 262 260 263 264 262 261 258 257 259 264 267 267 267 268 267 268 272 275 271 265 261 259 258 256 257
86 91 82 79 86 90 102 115 113 111 87 58 74 76 67 78 97 124 147 153 146 138 128 125 139 116 71 48 31 16 317 238 236 239 253 278 272 258 256 260 271 270 255 252 258 258 259 258 255 252 253 259 267 269 269 266 265 261 255 258 260 259 261 260 258 259 258 255 255 258 260 262 264 266 266 263 264 269 271 268 264 262 261 258 255
80 87 83 78 82 82 84 96 108 112 98 73 71 73 75 76 79 87 94 102 129 151 159 164 173 158 130 120 110 68 33 16 21 284 269 289 288 293 308 311 315 305 284 272 271 271 274 275 268 263 264 272 275 273 273 271 269 269 268 267 261 256 257 257 255 259 259 255 253 253 255 257 259 262 265 264 261 261 264 267 268 266 266 265 260
76 85 83 80 80 80 81 81 84 87 81 75 71 70 76 79 80 81 84 90 100 111 119 128 129 138 149 150 150 154 148 116 122 175 207 273 284 295 0 345 332 332 326 307 286 273 267 270 274 273 270 272 275 275 273 272 272 275 278 276 266 256 256 258 259 262 263 260 258 256 256 256 256 257 260 262 262 260 259 260 263 267 269 270 268
72 83 77 79 83 82 83 79 75 75 76 77 71 68 71 73 75 75 78 82 84 88 88 92 100 107 135 137 128 160 180 191 205 214 228 242 255 247 304 341 323 310 318 314 308 297 283 277 277 275 271 269 273 275 275 279 280 279 280 278 269 261 262 265 264 264 263 261 261 261 260 258 256 256 255 256 258 260 259 258 258 260 262 267 270
37 80 75 67 75 79 80 80 76 71 72 76 73 73 71 63 63 65 67 73 77 82 81 79 85 90 115 125 114 136 170 195 213 234 277 248 218 232 236 272 278 268 288 306 314 322 329 324 310 302 295 285 279 278 280 282 279 277 280 278 271 267 269 271 270 269 266 262 260 262 263 262 258 257 255 253 253 255 256 257 259 258 257 259 263
290 338 61 42 42 62 67 68 74 72 72 74 71 77 82 63 52 54 53 59 64 69 75 78 80 80 95 113 109 101 105 128 141 97 27 20 148 245 254 245 254 261 290 308 303 305 320 338 358 6 355 342 325 311 294 282 282 285 285 281 277 276 276 276 276 274 270 266 263 262 263 263 260 257 255 253 252 253 253 254 256 257 257 257 257
262 274 317 28 0 13 25 39 64 69 65 71 72 84 101 78 51 51 47 50 57 63 67 67 68 70 74 85 84 71 62 66 99 108 50 25 51 13 3 5 331 312 312 294 288 320 346 346 6 18 4 348 330 315 292 283 289 292 288 284 280 278 277 277 275 272 270 269 268 265 262 261 259 257 256 255 253 253 254 255 256 256 257 256 256
255 264 279 293 314 330 332 345 22 48 52 57 56 72 91 62 54 57 53 52 53 58 62 62 64 65 63 68 71 64 59 51 58 68 44 33 53 55 38 17 6 8 352 310 221 22 52 106 127 62 36 63 88 324 286 289 291 285 282 279 277 276 276 276 274 271 270 269 267 265 262 260 259 258 257 257 256 255 255 256 258 258 258 257 257
248 259 269 279 293 310 314 322 341 353 12 22 17 48 54 4 39 44 48 55 51 51 53 54 60 63 61 63 63 58 49 36 46 53 38 34 55 88 79 26 0 360 351 330 286 285 320 144 182 252 255 204 177 186 206 252 274 277 278 277 275 274 276 277 277 276 275 273 270 266 263 262 260 259 259 258 258 257 257 257 258 260 260 259 258
236 254 265 272 281 292 298 301 312 321 330 335 333 5 354 315 0 14 30 42 42 51 52 47 52 54 56 60 61 60 48 35 45 48 39 40 39 51 105 122 332 321 316 311 306 301 294 270 256 258 255 250 245 237 230 234 250 261 266 268 269 270 273 275 275 276 277 277 275 272 266 262 260 260 260 260 260 258 257 257 258 259 260 260 259
229 245 260 269 275 281 284 287 295 301 303 303 301 308 296 277 302 326 7 24 8 23 42 48 49 48 52 55 57 56 43 35 42 36 33 41 39 33 38 61 242 261 286 302 305 311 310 297 285 276 268 259 252 248 247 248 254 260 263 266 270 272 273 275 275 276 277 277 278 275 268 262 258 258 259 260 261 260 258 258 258 259 259 260 260
237 239 254 265 271 277 278 276 280 286 291 289 285 286 277 264 273 286 298 338 327 333 354 31 32 30 43 41 52 62 42 33 36 27 26 24 20 22 17 13 10 353 344 331 314 315 323 317 307 306 302 289 279 270 265 265 267 269 270 271 276 280 283 284 284 282 280 278 278 277 274 267 260 258 258 259 260 260 260 260 261 261 260 260 261
245 243 251 259 264 268 270 270 270 273 278 280 277 278 274 266 264 261 268 278 273 282 297 309 325 331 349 9 22 52 43 30 24 18 23 13 359 4 0 356 0 352 338 328 314 312 320 322 314 313 315 313 310 307 302 299 298 295 292 289 287 289 291 292 291 289 286 283 279 278 281 280 272 265 261 259 258 259 260 262 264 264 263 262 261
240 244 249 255 259 258 257 259 259 258 264 268 269 270 269 266 264 256 261 272 262 251 267 283 293 296 297 288 289 316 351 6 7 7 14 15 12 21 350 323 321 314 305 302 300 302 311 321 323 321 324 322 316 313 310 307 306 305 304 304 302 300 300 299 294 289 286 286 283 278 275 275 275 273 270 267 264 262 260 260 262 263 264 263 262
237 239 243 249 253 253 249 250 247 244 248 254 258 262 262 259 261 259 259 268 269 253 253 266 274 276 278 268 262 284 308 322 337 350 355 3 14 14 332 304 303 304 304 303 302 304 310 317 320 321 322 319 310 308 308 303 301 302 304 305 304 302 304 305 302 295 289 283 278 272 268 268 269 271 273 274 274 272 267 262 259 259 261 263 263
245 239 237 242 247 248 245 245 243 240 242 246 249 254 256 253 252 254 258 265 270 260 250 255 255 252 261 268 271 282 296 308 320 331 336 342 345 329 320 321 315 305 299 295 295 297 298 303 308 310 309 308 308 312 313 306 301 300 300 299 295 293 294 293 292 292 289 281 272 266 264 265 266 268 270 273 276 277 275 269 263 259 258 259 260
256 252 245 243 245 244 241 242 243 240 240 243 246 249 254 254 244 243 251 261 268 263 250 250 243 230 243 258 264 268 280 292 300 306 309 310 312 312 315 320 317 306 297 293 293 295 294 297 302 306 306 306 308 311 310 305 303 302 300 298 294 291 290 287 285 288 293 293 285 275 270 268 268 269 270 272 275 276 277 276 272 266 261 259 259
248 250 246 243 243 242 241 242 244 244 242 242 243 246 252 255 249 242 244 252 261 259 247 245 238 225 234 250 257 258 266 275 283 288 292 295 299 306 312 315 316 313 310 308 307 306 304 302 303 305 308 308 307 306 306 304 301 300 300 299 297 297 298 298 298 299 300 298 290 283 280 279 277 276 276 277 277 278 279 280 280 277 272 266 262
244 245 246 249 253 254 252 250 250 250 246 241 240 243 247 250 250 247 244 247 253 252 244 239 233 230 236 247 253 259 265 270 276 282 286 291 296 303 309 311 313 312 312 312 309 306 303 301 301 302 303 303 301 301 304 302 296 292 293 294 296 300 300 297 293 288 283 282 282 281 280 278 277 276 277 277 278 279 280 281 281 281 279 274 267
252 251 252 256 259 259 256 255 256 254 250 243 240 240 242 246 248 248 248 249 248 246 242 236 230 234 241 245 250 259 265 271 277 281 286 292 296 300 304 305 307 307 307 308 306 304 302 299 298 298 297 296 293 293 297 299 296 293 291 288 287 287 283 278 277 278 280 284 287 289 289 286 282 279 276 274 274 277 280 280 280 280 280 278 274
264 265 263 261 259 256 254 254 256 256 253 248 245 241 240 242 243 244 248 250 246 241 239 235 232 235 241 247 256 264 270 277 283 285 288 291 293 297 300 301 302 302 304 305 305 305 302 296 294 293 289 287 287 287 288 288 286 285 282 278 277 277 277 278 280 284 288 293 296 298 298 299 299 295 288 280 277 277 279 280 282 282 282 281 279
273 272 268 263 260 260 259 257 253 252 250 248 246 242 238 239 241 245 249 248 243 238 234 234 234 236 242 253 265 274 279 283 286 287 290 291 293 296 298 298 300 300 300 301 301 301 299 296 294 291 287 285 283 281 280 279 280 281 281 281 282 283 284 285 285 288 291 293 293 292 291 293 294 290 282 277 276 277 278 280 282 284 284 284 282
278 274 269 266 266 265 264 261 255 253 252 251 249 244 240 240 242 244 245 244 242 238 232 232 236 240 249 260 271 279 283 285 287 288 289 290 292 294 296 297 298 298 300 301 301 301 299 296 294 292 289 287 285 282 280 279 277 275 275 275 276 278 281 283 286 289 288 283 280 279 279 280 280 277 273 270 270 270 270 270 273 278 280 279 278
283 281 276 274 276 274 270 266 261 259 259 257 256 250 243 241 242 242 242 242 241 235 227 229 237 245 256 268 275 278 280 283 289 291 291 291 292 292 294 296 298 300 303 303 304 304 302 299 296 293 290 288 286 283 281 278 273 270 268 267 267 268 270 272 276 277 274 273 275 277 279 280 279 278 277 277 276 275 272 267 264 266 269 271 273
275 277 275 271 268 268 269 267 263 261 262 261 258 251 245 242 242 243 245 242 236 228 224 231 242 251 261 270 273 274 277 282 288 291 294 296 297 296 296 298 300 302 303 303 304 304 303 300 297 295 294 292 289 287 285 279 275 272 271 269 267 267 267 267 268 270 270 272 274 276 277 278 279 280 279 280 282 283 282 277 271 266 264 263 265
259 266 270 269 264 262 263 266 264 260 261 264 263 254 250 246 241 243 248 244 233 227 231 243 252 257 262 267 269 271 276 282 286 289 292 294 294 295 296 296 297 298 298 299 300 300 298 296 294 294 294 293 291 291 289 282 277 275 274 273 272 270 268 268 267 268 270 270 272 277 279 280 283 284 283 285 287 287 286 285 283 279 273 267 262
260 260 263 265 267 267 266 268 267 261 257 262 265 260 254 249 244 246 250 245 238 238 244 252 257 260 262 265 268 272 278 283 285 287 289 290 293 295 295 293 293 293 294 296 296 295 293 291 290 291 292 292 291 290 289 285 281 279 278 277 276 275 274 273 272 272 272 272 272 275 278 280 283 285 286 289 292 291 289 288 286 283 278 274 268
267 264 262 261 263 265 266 267 265 259 256 257 259 259 254 249 248 247 243 241 243 247 249 252 256 259 263 268 272 278 284 286 286 287 290 293 296 296 294 294 295 296 296 297 298 296 292 288 287 287 288 288 286 284 282 280 278 277 276 275 274 275 275 276 275 275 276 277 277 277 278 280 283 284 287 291 293 291 291 291 292 288 279 274 271
271 269 268 266 264 264 264 264 261 258 257 256 257 257 254 250 247 243 238 239 245 247 247 251 257 262 268 274 279 283 287 287 287 291 295 297 297 296 296 298 300 300 301 302 302 299 293 289 285 282 280 279 278 278 277 275 274 274 275 275 275 276 276 276 276 276 276 276 277 275 274 276 278 279 283 288 289 288 291 295 297 296 289 280 274
272 271 269 269 269 266 262 259 257 256 256 257 257 255 251 248 244 240 240 245 248 247 248 254 260 266 271 276 281 285 288 290 291 294 296 297 296 297 299 300 300 300 302 303 301 296 292 289 286 283 281 280 278 277 277 276 275 273 273 275 278 280 279 277 278 279 277 274 272 270 269 272 275 275 278 283 286 286 291 297 300 300 295 287 280
270 273 273 269 264 262 259 255 254 254 255 256 257 252 246 242 239 239 247 251 246 241 240 239 239 243 249 259 271 278 282 286 288 290 291 292 293 294 295 296 296 297 299 299 297 295 294 291 289 287 285 281 279 277 277 277 277 274 272 274 276 278 278 279 280 281 279 275 273 269 267 271 276 276 275 281 288 288 287 292 296 294 290 285 279